Wind_Speed
62 62 64 65 66 67 67 67 66 65 64 63 62 61 61 60 59 59 58 58 58 59 59 59 58 57 56 55 55 54 54 53 52 50 48 46 45 44 44 43 42 38 36 33 29 26 27 31 34 35 36 35 32 31 28 26 24 24 25 25 27 30 33 34 33 31 28 28 28 27 26 26 26 26 25 25 25 25 25 24 23 23 24 26 27
60 60 60 61 61 61 61 60 59 59 58 58 57 57 56 56 56 56 56 55 55 56 56 55 55 54 53 52 52 51 50 49 48 46 45 44 43 43 42 40 38 35 32 29 26 26 28 32 35 36 34 33 33 30 27 25 23 23 24 26 29 32 32 31 30 28 27 27 27 26 25 25 25 25 24 24 24 24 24 23 22 22 23 26 26
57 56 56 56 57 56 55 54 53 53 53 53 53 52 53 53 54 54 54 54 53 53 53 53 53 53 52 51 49 48 47 46 45 44 43 43 42 41 40 37 36 33 30 27 26 28 32 35 37 37 34 33 33 29 27 26 23 24 25 27 30 30 29 28 27 27 28 27 26 25 24 24 24 24 23 23 23 23 23 22 22 21 22 25 25
53 53 53 52 53 52 51 49 48 47 46 46 46 46 46 48 50 51 52 52 52 51 50 50 50 50 50 49 47 46 44 44 43 43 42 42 41 40 38 36 35 32 30 29 29 32 35 38 39 37 35 34 32 27 27 27 25 26 26 27 28 27 26 25 26 27 28 27 25 25 24 24 24 24 23 22 23 22 22 22 21 20 22 24 23
51 50 50 49 49 48 47 45 43 42 41 40 40 40 41 43 45 47 48 49 50 48 47 46 47 48 48 48 46 44 42 41 41 41 41 41 40 39 37 36 35 30 29 31 32 34 37 39 39 39 38 34 30 27 28 27 28 27 26 27 27 26 24 24 26 27 27 26 25 25 24 23 23 23 22 22 22 22 22 22 21 20 22 22 20
49 48 46 46 45 45 44 42 41 39 38 37 37 37 37 39 41 43 45 47 48 48 47 46 46 47 46 45 43 41 39 38 39 40 40 40 39 38 37 37 36 30 28 31 31 33 36 38 39 39 37 30 27 28 29 29 30 28 27 28 27 25 24 24 25 26 26 25 24 25 24 23 23 23 22 22 22 22 21 21 20 19 21 19 17
48 45 43 43 43 42 41 40 38 37 36 35 35 34 34 36 39 41 43 45 46 46 45 44 43 43 42 40 39 38 36 36 37 38 39 39 39 39 38 38 38 34 32 33 32 31 33 34 34 34 31 25 25 29 30 31 32 29 29 28 27 26 24 23 24 25 25 24 24 24 24 23 23 23 22 21 21 21 21 21 19 19 20 17 15
47 45 43 43 42 41 40 39 37 36 34 32 31 31 32 34 37 39 41 42 44 44 42 41 40 39 39 38 36 35 34 34 34 36 37 38 39 39 39 39 40 38 38 40 39 35 34 35 35 34 30 25 25 29 31 33 32 29 29 29 28 26 24 23 23 24 24 24 24 24 24 24 23 23 22 21 22 21 21 21 19 18 18 15 13
46 45 44 43 42 41 41 40 39 36 32 30 30 30 31 32 34 37 39 40 42 43 43 42 40 38 37 37 35 35 34 33 33 35 36 38 39 40 41 40 41 41 40 43 45 41 39 39 39 38 35 29 27 29 33 34 31 30 32 31 29 26 24 22 23 24 25 24 24 24 24 24 23 23 22 22 22 22 22 21 18 17 17 14 13
46 44 43 43 43 42 42 42 40 36 32 33 36 35 34 35 33 33 36 39 41 42 42 42 41 39 37 37 36 36 35 34 34 36 37 38 40 41 42 42 42 42 42 44 47 46 44 42 42 42 39 34 29 30 35 34 32 33 34 32 28 26 24 23 23 24 25 25 25 25 24 23 23 22 21 22 22 22 22 20 17 16 16 13 12
46 45 44 45 45 44 43 42 39 36 35 38 41 41 41 41 36 31 32 36 40 41 41 41 40 39 38 37 37 36 35 35 35 36 38 39 40 41 42 42 42 44 45 47 49 49 48 46 46 45 43 37 30 31 35 34 33 34 35 32 28 25 25 24 24 25 26 26 26 25 23 22 23 22 21 22 22 23 22 19 16 15 15 12 12
47 46 47 46 46 45 43 41 38 38 40 42 44 44 44 41 38 34 31 31 35 40 41 39 39 39 39 37 37 36 35 36 36 36 38 40 41 42 42 42 42 44 47 48 48 49 50 49 48 47 44 36 29 32 35 33 34 35 33 30 27 26 26 25 24 25 26 26 27 25 23 22 22 21 21 21 22 22 20 17 15 14 14 12 12
47 47 48 47 45 44 43 41 40 42 44 45 47 47 45 42 40 40 38 33 33 37 40 39 39 39 38 38 37 37 36 36 37 37 38 40 42 42 42 43 42 41 43 44 46 49 50 50 49 47 44 37 30 33 36 34 33 33 30 29 27 27 27 25 24 25 26 26 26 25 22 21 21 20 20 21 22 20 18 16 14 14 13 12 12
46 47 47 47 45 44 43 41 42 44 45 47 48 48 46 43 43 45 44 43 38 33 34 36 38 39 39 38 38 39 38 37 37 38 39 40 42 43 43 44 43 42 40 41 44 47 48 49 46 44 43 39 34 33 35 34 32 31 30 29 28 27 26 25 24 25 25 26 26 24 21 20 20 18 19 21 20 18 16 15 14 14 13 12 12
45 47 47 46 46 45 44 43 45 47 47 48 49 49 48 45 45 46 44 45 39 29 28 32 34 36 38 40 40 41 42 41 40 39 40 41 42 43 44 45 46 47 46 44 44 45 45 45 41 39 39 38 35 33 35 33 32 32 32 30 28 27 25 25 25 24 25 26 25 22 21 20 18 17 18 19 18 17 15 15 15 14 13 13 13
43 45 46 45 45 45 45 45 48 49 49 49 49 49 48 47 47 45 43 43 38 29 26 30 33 33 35 39 42 43 45 44 42 41 41 41 42 43 44 46 48 50 50 47 45 44 42 40 37 34 36 36 34 34 34 33 33 33 33 31 28 26 25 25 24 23 25 25 22 21 20 19 17 16 17 18 17 16 15 15 15 14 14 13 13
40 42 43 43 44 46 45 46 50 49 48 49 49 49 49 50 49 47 45 42 38 33 29 29 31 32 33 36 40 43 44 44 43 41 40 41 42 43 44 46 48 50 50 48 46 45 40 38 36 34 34 34 33 35 36 35 35 34 33 31 28 27 25 24 23 23 24 23 20 20 20 19 17 17 17 18 16 16 15 15 15 14 15 14 14
38 40 41 41 44 47 47 48 50 48 47 48 48 49 49 49 49 50 49 42 40 37 32 30 30 29 29 30 34 37 40 41 41 40 40 40 42 43 44 46 48 50 49 48 48 46 40 37 37 36 35 35 35 38 38 37 35 34 33 31 28 26 23 22 22 23 23 21 20 20 20 19 18 18 19 18 17 16 15 15 14 14 15 14 13
38 39 40 41 43 47 49 49 50 48 46 47 47 49 50 48 48 50 48 42 41 40 36 34 31 29 27 26 27 28 32 35 37 39 39 40 41 42 43 46 48 49 48 48 50 49 44 40 37 38 38 37 37 36 33 32 32 35 33 30 28 26 22 20 21 21 20 21 21 21 20 19 18 19 20 19 18 17 16 15 14 14 15 14 13
40 40 40 42 43 46 49 51 52 49 46 46 48 49 50 48 48 50 47 42 41 41 40 37 34 32 29 26 23 22 25 28 33 37 38 39 40 42 43 45 47 48 48 49 52 51 47 43 38 39 41 40 38 32 28 30 33 36 32 29 28 25 21 20 21 20 19 20 21 22 22 20 19 19 20 19 18 17 16 14 13 13 13 13 12
42 41 42 43 45 46 48 52 53 50 47 46 48 49 49 48 48 49 48 45 43 43 41 39 36 34 32 28 24 23 24 25 29 33 36 38 39 41 43 45 47 47 48 50 52 50 46 43 40 39 41 42 41 32 27 31 35 34 30 29 27 24 22 21 21 20 20 21 21 21 22 21 20 20 20 19 18 17 16 15 13 12 12 13 13
43 43 43 45 46 46 48 52 54 52 49 47 48 49 49 49 48 48 47 45 45 44 43 41 39 37 35 30 27 25 24 25 27 30 34 37 39 41 43 44 46 47 49 50 49 47 46 44 41 39 40 42 41 34 29 32 35 32 28 27 25 24 24 22 21 20 21 22 22 21 21 22 21 20 20 19 17 17 16 15 14 12 12 13 14
43 44 44 46 48 48 49 52 54 53 51 49 48 50 51 50 49 48 47 45 46 46 43 43 40 37 35 33 31 28 27 28 29 30 32 36 39 41 43 44 46 48 50 51 48 46 45 45 44 40 38 37 37 34 30 31 34 31 27 26 25 25 25 22 20 20 20 22 23 23 22 22 22 21 21 20 18 17 16 16 15 13 13 13 14
42 44 45 47 49 50 50 52 54 54 53 51 50 51 52 52 52 51 48 46 48 48 45 43 41 37 37 37 35 32 31 32 32 32 32 34 37 40 43 44 46 48 50 51 50 48 46 45 46 43 38 34 33 32 28 30 33 31 28 26 26 27 26 23 20 20 20 21 22 23 23 24 24 23 22 21 20 19 17 17 16 15 14 14 15
41 43 46 47 49 51 52 52 54 54 54 54 53 52 53 53 53 54 50 48 51 52 48 44 43 41 41 41 40 36 34 34 35 36 34 34 36 39 43 45 46 48 50 52 51 51 47 44 46 45 41 35 33 33 28 30 34 34 31 27 27 27 26 24 20 20 20 19 20 21 22 24 25 25 23 22 21 20 19 18 17 16 15 15 16
40 42 45 48 50 52 53 53 54 54 53 54 54 53 53 54 54 55 54 52 54 55 52 47 44 43 43 44 44 39 35 36 37 38 37 36 36 39 42 45 47 47 49 51 51 52 49 45 43 43 44 39 35 35 30 30 35 37 34 27 26 26 25 23 20 18 19 19 20 20 21 23 25 25 25 23 22 21 20 20 19 18 17 16 17
39 42 45 48 50 52 54 54 55 55 53 52 54 54 52 52 53 54 57 57 56 56 54 51 46 43 45 47 46 40 37 37 38 38 38 36 36 38 41 44 46 46 48 51 51 51 51 48 45 44 45 43 38 37 33 30 35 39 35 28 24 24 23 20 17 16 16 17 20 21 20 22 23 25 25 25 24 23 22 21 21 20 18 17 18
39 42 45 48 51 53 54 56 56 56 55 52 53 53 51 49 49 51 56 59 57 56 55 53 49 45 45 48 47 43 41 40 38 37 36 35 35 38 40 42 44 45 48 52 52 50 50 49 48 46 46 47 42 40 37 33 35 39 37 30 25 24 22 18 14 14 15 16 18 21 21 21 22 24 25 26 25 24 23 23 22 21 20 19 18
38 42 46 48 51 54 55 57 57 57 56 54 54 54 51 48 49 51 55 59 58 56 55 53 51 47 46 47 47 46 44 42 39 35 34 35 35 37 39 40 43 46 48 52 54 52 50 48 46 43 44 46 44 42 41 37 37 39 38 34 29 27 25 22 17 16 17 17 17 19 21 21 21 22 24 25 26 26 25 24 24 22 21 20 19
38 41 45 49 52 55 57 58 59 58 57 57 56 56 53 51 53 55 58 60 59 57 55 52 50 48 46 48 49 48 46 44 42 37 33 34 35 36 38 40 43 46 49 53 55 55 54 51 45 41 41 43 44 43 43 40 37 39 39 37 34 31 29 28 25 21 20 20 19 18 20 22 22 22 23 25 26 27 26 25 25 24 23 21 20
38 41 44 48 51 55 58 59 60 60 59 59 59 58 56 54 56 57 59 61 61 60 56 52 50 47 44 45 49 50 48 46 45 41 34 33 35 37 39 41 44 46 49 53 55 55 56 54 47 42 41 43 44 45 45 42 40 40 39 38 36 35 31 30 29 27 24 23 21 20 20 22 23 23 23 24 26 27 28 27 27 26 25 23 22
40 41 43 46 50 54 58 60 61 61 61 61 62 61 60 57 57 57 58 61 64 64 61 54 50 48 44 43 45 47 49 48 47 45 36 33 35 37 40 42 44 46 48 52 53 54 57 56 49 44 43 44 45 46 47 45 42 40 37 36 37 37 35 31 30 30 28 27 24 21 21 22 23 24 23 24 26 28 29 29 29 28 27 24 23
41 42 44 46 49 53 57 60 62 63 63 63 64 64 63 61 59 56 54 58 65 67 65 59 53 50 47 46 45 44 46 47 48 47 39 34 35 37 41 42 44 47 48 48 50 53 56 56 50 45 45 46 45 46 48 46 43 39 35 36 38 38 37 34 32 31 31 30 27 24 23 23 24 24 25 25 25 27 29 31 31 30 28 26 24
42 43 45 45 48 52 55 59 62 64 64 65 65 65 66 66 63 58 54 56 63 66 66 64 61 55 50 48 49 47 46 47 49 49 42 36 36 38 41 44 45 48 50 48 47 50 53 55 52 48 47 47 46 46 47 48 46 41 37 39 39 38 37 36 34 33 32 32 31 29 26 25 24 25 27 28 28 28 29 30 31 31 29 27 25
43 44 45 45 47 50 54 58 61 65 67 67 67 66 66 67 66 63 58 56 59 64 67 67 66 63 57 52 51 51 50 49 49 50 45 39 36 37 40 45 47 49 52 51 48 48 50 54 53 50 49 49 47 47 47 48 48 45 41 42 41 38 37 36 36 35 34 33 34 33 30 28 27 26 27 29 31 31 31 30 30 30 29 28 26
43 45 45 45 46 48 52 56 60 64 68 69 69 68 67 67 66 64 61 59 58 63 67 67 67 67 65 58 53 53 53 51 51 52 48 41 36 36 40 45 48 49 52 53 51 49 50 52 53 51 50 49 48 48 48 47 47 47 44 44 43 41 38 37 38 38 36 35 36 36 34 32 31 30 29 30 32 33 33 32 31 30 29 28 27
44 45 45 44 45 47 49 53 58 62 67 71 72 71 70 69 67 65 63 61 59 61 65 66 66 66 66 63 57 55 55 53 53 54 51 44 38 37 40 44 47 49 52 54 53 52 52 52 52 51 51 50 49 49 49 49 48 48 47 45 45 43 40 38 38 38 36 35 36 38 37 35 33 33 33 33 34 33 34 34 33 31 30 29 28
43 44 44 43 43 45 47 50 54 58 63 70 73 74 73 71 70 68 65 63 59 59 64 65 64 65 64 63 59 56 56 56 55 55 54 49 43 39 42 45 47 48 50 53 55 53 54 54 53 52 51 51 51 51 51 51 51 50 49 48 47 44 42 40 38 37 36 36 37 38 39 38 37 37 38 38 37 35 34 34 35 33 31 30 29
43 43 43 43 42 42 44 47 51 55 59 64 71 75 76 75 73 71 67 65 61 59 63 67 66 66 64 62 59 56 57 58 58 58 55 52 47 42 43 47 49 50 51 53 56 56 55 56 56 55 54 53 54 54 54 53 53 52 52 52 50 47 44 42 41 39 38 39 39 39 41 43 43 42 42 42 40 37 35 35 36 35 33 32 31
42 42 42 41 40 40 41 44 47 52 56 60 65 72 77 78 76 74 71 68 66 62 63 68 68 67 65 62 60 58 57 58 60 60 57 53 50 45 44 47 50 53 55 55 56 58 58 58 58 59 58 58 57 57 56 55 55 54 54 53 51 48 46 45 44 43 42 41 40 39 42 45 46 45 44 43 41 39 38 36 36 37 36 34 33
42 41 41 40 39 39 39 40 43 48 53 57 61 66 73 78 79 78 75 72 70 67 65 67 68 67 65 63 62 60 58 58 60 60 57 53 52 49 46 47 50 53 56 58 57 58 61 62 62 61 61 61 61 59 57 56 56 56 55 52 51 50 49 47 45 44 43 40 38 38 40 42 43 44 43 42 41 40 40 39 38 38 37 36 35
41 40 40 39 38 39 38 38 39 42 47 53 58 62 67 74 79 81 80 76 74 72 69 68 67 66 64 63 62 62 61 60 60 60 57 54 52 51 49 49 49 51 53 57 59 58 60 65 67 67 65 63 62 61 58 57 57 57 55 52 51 51 49 46 45 43 40 35 34 35 35 37 38 39 39 40 40 40 40 40 40 40 39 37 36
39 39 39 38 37 37 37 36 37 38 41 46 53 59 63 68 75 80 83 81 79 77 74 72 69 66 64 64 63 64 64 64 62 61 58 56 55 53 52 51 50 50 51 55 60 61 59 62 66 68 67 65 63 61 59 58 58 57 56 53 51 49 46 46 44 40 35 32 33 33 33 34 35 36 36 38 39 39 40 41 41 41 40 38 36
37 38 38 37 36 35 34 34 35 36 36 39 44 52 59 64 69 75 81 84 83 81 79 76 74 71 67 65 65 66 67 68 68 66 63 61 60 58 56 54 52 51 51 53 56 59 59 60 64 66 66 65 64 63 61 59 59 58 56 55 52 48 47 47 44 40 35 33 32 33 33 33 33 34 35 37 38 39 41 42 42 41 41 38 36
36 36 37 36 35 34 32 32 33 35 35 35 37 44 52 59 64 68 74 81 84 84 83 80 77 76 73 69 68 69 70 70 71 70 68 64 63 63 61 58 56 54 53 53 54 57 58 59 62 64 64 64 64 64 63 62 60 59 56 55 53 50 49 49 46 43 39 37 36 36 36 36 34 33 34 36 37 38 40 41 42 42 41 39 37
35 34 35 35 34 33 31 30 31 32 34 34 34 36 43 51 58 62 67 73 79 83 84 82 79 77 76 73 70 70 72 73 73 72 71 67 64 64 64 62 59 57 56 54 54 56 56 57 60 62 63 63 64 64 64 62 61 59 57 55 52 50 51 50 48 45 42 41 42 42 41 41 40 37 36 37 38 37 37 39 40 41 41 40 38
34 33 34 34 34 33 31 29 29 29 30 32 32 32 36 43 50 55 60 65 71 77 81 83 81 78 77 76 73 70 72 75 76 75 73 71 68 66 66 65 63 61 59 57 56 56 57 57 58 60 62 62 63 63 63 62 60 59 57 55 53 52 51 50 48 46 44 43 45 46 45 44 44 42 39 38 39 36 35 36 38 40 41 40 39
35 33 33 34 34 33 32 29 28 28 28 28 30 30 31 36 42 47 53 59 64 69 75 79 81 79 77 76 75 71 70 74 78 79 77 75 73 70 68 68 67 65 62 60 59 59 59 59 59 59 61 62 63 63 63 62 60 60 59 57 56 55 54 52 50 48 47 46 47 48 47 46 45 44 41 39 39 37 35 35 36 38 40 41 40
36 34 33 33 33 33 32 30 28 27 28 27 27 27 28 30 35 40 45 51 57 63 68 73 77 79 77 76 76 74 71 72 77 81 80 78 76 74 71 69 69 68 66 63 61 61 62 62 61 61 61 62 63 63 64 63 61 61 61 60 60 59 57 56 55 52 51 50 50 49 49 48 45 44 42 39 38 38 36 35 36 38 39 40 40
36 35 33 33 33 33 32 32 29 27 27 27 26 26 26 27 30 35 39 44 50 57 62 67 71 75 76 76 76 76 73 71 74 80 82 80 79 76 74 71 70 70 69 67 64 63 63 64 65 64 63 63 64 64 64 64 63 62 63 63 63 61 59 59 58 56 55 55 54 53 52 50 46 43 42 39 37 37 36 35 37 39 40 40 40
36 36 34 33 32 33 33 33 31 28 26 27 26 25 24 24 26 29 34 38 43 50 57 62 67 71 74 75 76 76 75 74 73 77 80 81 81 79 76 74 72 71 70 69 67 65 65 65 66 66 65 64 64 65 65 66 65 65 66 66 66 64 63 62 61 60 59 59 58 57 54 52 48 45 42 40 38 37 37 36 36 38 40 41 40
Wind_Direction
258 259 259 259 260 262 263 262 263 263 264 264 264 264 264 262 260 260 261 260 259 259 258 258 258 258 259 259 260 262 263 264 266 267 267 266 265 264 265 267 268 267 263 259 258 259 259 257 254 252 254 259 267 276 281 281 277 275 273 273 281 290 297 300 300 297 295 296 299 302 305 305 306 309 309 307 306 308 311 316 317 313 309 307 309
258 259 259 260 261 263 264 264 264 264 264 265 265 265 264 263 262 261 260 259 258 257 256 256 256 256 256 257 259 260 262 263 264 265 265 264 263 263 264 265 264 262 259 256 254 254 252 250 248 249 254 259 265 273 277 275 270 266 267 275 285 292 296 299 297 294 293 296 298 301 304 304 306 309 308 305 305 306 311 315 315 312 308 307 310
260 260 260 261 261 262 262 263 263 263 263 264 266 266 266 264 263 261 259 258 256 256 255 255 255 255 256 256 257 259 261 262 262 263 263 262 261 261 262 260 258 256 252 249 245 245 245 244 246 249 254 260 265 271 273 268 262 260 267 278 286 290 293 296 294 292 293 295 296 299 302 303 306 310 307 303 303 305 310 314 313 310 307 308 312
260 259 260 259 259 259 260 260 260 261 262 263 265 266 266 264 263 261 259 258 257 256 256 255 255 255 255 254 255 257 259 260 260 261 261 261 260 259 258 255 253 251 247 242 237 237 240 244 246 249 255 262 265 268 271 262 255 259 267 279 285 288 291 293 291 292 293 292 294 297 300 301 306 309 305 302 301 304 309 313 312 309 307 309 313
259 259 259 259 259 259 259 259 259 259 259 261 262 264 264 264 263 262 260 259 258 257 256 256 255 255 254 253 254 256 257 257 258 259 259 258 257 256 254 250 249 246 247 246 239 238 241 246 250 253 257 260 262 267 268 256 252 258 268 280 283 287 291 290 289 291 291 289 291 295 297 299 305 308 303 300 300 303 308 312 312 307 306 310 316
260 261 261 261 261 261 259 258 259 259 259 260 260 261 262 262 262 263 261 259 258 257 258 258 256 255 254 253 252 253 254 254 254 256 257 257 255 254 250 247 245 238 242 250 246 245 247 250 252 254 254 256 261 264 263 255 252 258 271 279 281 286 291 287 285 289 288 285 289 293 295 298 304 307 302 298 298 302 307 311 311 306 305 310 317
260 261 261 259 258 258 257 257 257 259 261 262 262 263 264 262 262 262 261 260 259 258 258 258 258 256 254 251 250 252 253 252 251 253 254 254 253 253 249 245 244 235 231 238 238 240 244 246 248 251 250 252 259 259 258 255 252 259 271 277 280 286 289 285 283 286 285 283 287 291 293 296 302 305 300 296 297 301 306 310 309 304 305 309 316
257 257 255 255 254 253 254 254 254 255 257 259 260 263 265 264 262 262 262 261 258 256 258 260 259 257 252 249 251 253 253 251 250 251 251 252 251 251 248 244 243 239 231 228 228 230 233 238 244 251 252 251 255 256 256 255 254 261 272 276 280 286 288 283 281 283 281 280 285 288 291 294 300 303 298 294 295 300 305 308 306 302 303 306 311
253 253 252 253 252 251 251 251 250 249 248 245 243 250 259 263 265 263 262 260 258 256 259 261 259 256 252 250 253 255 255 253 252 251 250 250 250 249 247 244 240 239 235 229 228 228 231 235 241 249 254 252 251 255 257 256 257 263 271 275 279 286 287 282 279 278 277 278 283 286 288 292 298 301 295 292 294 299 304 305 303 300 300 302 307
253 253 252 252 251 250 249 249 247 244 239 233 229 232 242 250 257 265 265 261 258 257 258 258 257 254 250 250 253 255 256 255 253 252 250 249 249 249 247 243 237 234 234 232 230 230 233 236 240 246 254 255 253 256 257 256 258 265 270 272 279 285 283 280 278 274 273 277 282 284 285 289 296 298 293 290 293 299 302 303 300 297 297 299 305
252 252 250 249 249 249 249 249 244 239 235 230 225 223 228 234 239 251 263 264 257 255 256 256 254 252 250 251 253 254 255 254 253 251 250 248 248 247 246 243 236 231 230 231 230 231 234 238 242 246 253 257 256 257 255 254 259 265 267 270 277 281 280 280 276 272 272 276 281 282 282 286 294 295 290 289 294 299 301 300 297 294 294 297 303
251 250 249 248 249 249 248 246 240 235 233 230 226 223 224 226 225 229 244 259 260 255 254 253 252 252 252 253 255 254 254 254 252 250 249 248 247 246 245 241 236 231 229 231 232 233 236 240 243 247 253 255 255 257 253 253 260 263 264 269 276 277 277 278 274 273 273 275 279 281 279 284 292 291 288 290 295 299 300 297 293 292 291 294 301
251 251 250 249 249 248 246 242 236 232 231 229 228 226 227 227 223 222 226 236 250 255 253 251 250 250 252 254 256 255 255 257 254 250 248 247 247 244 242 238 235 233 232 234 236 236 238 241 244 248 250 248 250 254 250 250 257 261 266 271 274 274 275 277 275 274 274 275 278 278 277 283 290 289 289 292 296 299 298 294 290 290 288 290 299
254 253 252 250 248 246 244 239 232 230 228 227 229 227 229 230 225 224 224 225 233 246 251 252 252 250 251 252 254 255 255 257 256 251 247 246 245 243 239 233 231 232 233 236 238 238 238 241 243 246 248 244 244 249 246 248 256 263 269 271 272 270 273 276 274 274 274 273 276 276 274 282 288 287 291 294 297 298 296 293 290 288 285 287 295
253 252 250 249 246 243 241 236 230 229 227 227 230 228 230 231 227 227 227 226 227 236 244 251 254 254 255 253 255 255 255 257 256 252 248 245 244 242 237 230 226 228 232 235 237 238 237 239 239 242 246 240 238 242 242 247 257 263 267 269 269 268 272 275 271 271 271 270 273 272 271 279 284 286 291 295 297 296 296 294 291 288 284 285 290
249 248 247 247 246 243 238 233 229 229 227 228 230 229 231 232 229 229 229 228 229 233 240 248 252 256 258 256 255 255 255 256 255 251 247 244 243 240 237 230 225 226 230 233 237 239 237 234 234 239 239 233 232 235 238 248 257 261 265 267 267 268 272 271 266 266 267 267 268 266 268 276 280 282 288 292 294 293 296 298 295 290 285 284 287
247 247 246 244 243 242 238 232 229 228 227 228 228 228 232 233 231 231 232 231 229 229 236 244 247 250 256 255 254 254 254 254 252 249 245 243 241 239 237 232 227 226 228 231 236 239 237 233 232 235 231 226 228 230 237 248 256 260 264 267 266 267 272 269 262 263 264 262 262 262 265 272 276 276 280 286 287 288 294 299 298 292 287 285 286
246 246 245 242 238 238 237 232 230 228 225 227 228 228 231 233 232 232 234 231 225 225 230 238 241 243 248 250 250 252 252 251 250 247 244 242 239 238 237 233 229 226 226 228 233 235 236 235 232 231 225 222 226 229 238 250 257 262 265 266 264 267 273 267 262 263 262 259 260 262 261 268 273 271 273 279 282 283 289 297 298 293 288 286 286
245 245 244 241 237 235 235 232 232 230 227 229 229 227 230 233 232 232 233 227 224 226 228 234 239 239 242 246 249 251 250 249 248 246 244 240 238 238 237 235 232 228 225 225 229 232 236 237 234 229 224 221 226 233 246 257 262 264 265 264 262 269 272 261 260 263 262 260 261 261 258 262 270 269 269 273 278 280 284 292 296 292 288 285 284
243 242 242 242 240 236 233 233 234 232 231 232 230 227 229 234 233 233 234 230 228 230 231 234 236 237 239 242 245 247 249 251 249 246 244 240 237 238 238 236 233 229 225 223 227 232 235 236 235 231 226 226 230 240 255 260 263 264 261 259 262 271 265 252 254 258 258 260 261 260 257 258 266 268 268 271 276 279 281 287 293 291 287 283 281
241 240 239 241 241 239 234 234 235 234 232 233 231 227 229 233 234 235 236 234 233 234 235 233 232 233 234 235 237 241 246 251 252 249 246 242 238 237 237 236 233 229 224 222 226 232 234 233 235 233 229 231 234 239 249 253 258 258 253 257 266 271 259 246 249 253 253 255 258 260 257 257 263 267 267 269 273 278 279 283 289 288 283 279 280
241 239 237 238 240 241 237 236 237 234 232 232 232 228 227 232 234 235 236 233 233 235 235 230 230 233 233 234 236 241 248 254 255 253 249 245 239 235 234 233 231 228 222 221 224 231 234 231 232 234 232 235 238 237 239 248 252 247 249 262 271 269 254 242 248 255 256 256 257 258 258 257 261 265 266 266 269 274 277 279 284 285 278 273 277
240 239 237 237 238 240 239 239 239 236 232 231 232 230 227 232 235 234 234 232 232 234 233 229 231 236 238 238 238 242 252 257 256 253 251 247 242 235 231 230 230 227 221 219 221 226 233 232 230 231 233 237 238 233 236 244 241 240 254 268 272 266 249 239 248 259 262 262 261 259 259 258 259 263 265 264 265 270 274 278 281 282 276 268 273
240 239 238 238 238 239 239 239 240 239 236 231 230 231 230 232 236 236 235 234 233 234 233 229 231 237 241 241 239 244 255 260 258 255 253 250 245 238 233 230 230 227 221 218 219 221 228 231 229 229 232 234 231 227 234 240 235 241 258 269 271 261 245 241 250 258 263 264 262 261 260 260 260 262 264 265 265 267 272 276 279 280 275 267 268
243 240 238 238 238 239 238 238 238 239 238 235 231 231 232 233 236 238 237 237 237 236 235 232 232 237 240 240 240 246 258 263 262 261 257 251 246 239 233 231 231 229 224 218 217 218 222 227 228 228 228 228 226 224 232 240 239 246 256 267 268 253 244 245 248 255 260 261 264 263 261 261 261 261 263 265 266 266 270 275 277 278 276 267 265
247 244 240 239 238 239 239 238 238 237 237 237 235 233 233 234 237 238 239 241 241 239 237 237 234 236 241 241 242 249 260 265 265 263 258 252 246 239 233 232 232 230 225 221 218 216 217 222 224 224 224 225 226 224 230 242 244 247 252 262 263 250 247 247 245 254 259 261 265 265 264 263 262 262 261 262 265 267 269 273 276 276 276 270 264
251 248 244 242 240 239 239 239 238 236 235 236 236 235 235 236 238 240 241 242 244 242 239 240 237 234 240 243 243 249 259 264 268 265 259 253 245 239 233 231 232 229 223 221 221 219 218 220 221 221 224 228 229 225 229 240 245 246 248 255 258 251 251 247 243 255 265 268 266 264 267 265 262 261 259 259 262 266 269 271 274 275 274 271 265
254 252 248 245 243 240 239 239 238 236 234 232 234 235 235 235 237 240 243 243 245 245 242 242 239 233 236 241 244 248 254 262 269 266 258 252 246 239 233 230 230 227 222 218 220 222 220 221 224 226 227 231 231 227 228 236 242 245 244 248 253 251 248 243 243 259 273 279 273 265 265 268 267 262 258 257 258 263 267 270 272 273 272 271 267
255 255 252 248 245 243 241 239 238 236 233 230 230 232 232 232 233 237 243 244 244 245 244 243 239 234 234 238 242 245 249 256 266 265 257 253 248 240 234 230 229 226 221 218 218 221 223 224 226 229 228 229 230 227 227 233 238 240 240 244 248 249 247 246 251 262 270 277 278 270 265 268 271 267 261 257 257 260 264 268 271 272 271 269 268
258 255 254 251 247 245 243 240 239 236 233 229 228 229 228 228 232 237 242 246 244 243 244 243 239 237 236 238 242 245 247 251 260 264 259 254 249 241 233 229 227 225 221 218 218 219 223 226 227 228 228 228 227 226 226 231 235 234 236 242 246 248 250 250 253 258 263 269 274 274 269 268 270 271 266 260 258 258 260 264 267 271 271 268 268
264 260 256 254 251 247 245 242 240 237 233 229 228 228 227 228 233 239 242 246 246 243 243 242 239 238 239 241 242 245 246 249 254 260 261 256 249 240 232 228 225 224 222 219 220 220 221 225 226 225 228 228 227 226 226 229 233 231 235 242 247 249 250 252 251 252 256 262 266 266 267 268 269 271 270 266 261 259 259 260 264 268 269 268 266
268 265 261 257 254 250 247 244 241 238 235 230 228 228 228 228 232 239 243 246 248 244 242 242 241 239 239 242 243 244 245 246 250 255 260 256 249 239 233 229 225 222 221 221 222 222 221 222 222 223 226 228 228 227 226 229 233 232 236 244 249 250 250 251 250 250 252 256 260 260 261 265 268 269 271 270 266 262 261 261 263 265 267 266 264
270 269 265 259 256 252 249 246 244 240 237 233 230 228 228 229 232 237 241 245 248 246 243 243 243 241 240 241 243 244 244 245 247 251 256 256 248 240 234 230 225 221 219 221 224 224 222 220 220 223 226 227 226 226 225 231 234 232 237 244 247 249 249 249 249 249 252 255 258 258 258 261 263 266 269 270 269 266 264 263 263 264 264 263 261
274 272 268 263 257 253 250 248 245 243 240 235 232 230 228 230 231 235 238 241 246 249 246 244 244 243 242 241 241 244 245 246 247 248 253 257 250 242 234 228 224 221 218 219 223 224 223 220 220 224 226 225 224 223 225 231 233 230 234 239 242 244 246 248 249 251 254 256 257 258 258 259 261 266 268 270 271 270 268 266 265 263 262 259 258
278 276 272 268 261 255 251 248 245 244 242 239 235 232 230 231 232 234 237 239 243 247 249 246 244 244 243 242 240 241 243 245 246 247 251 256 254 245 236 228 223 221 219 218 219 221 221 220 222 224 226 226 224 223 226 231 232 230 232 234 237 241 243 246 249 251 254 255 255 257 259 259 260 265 270 272 273 273 271 270 268 264 260 256 255
283 281 277 273 267 260 252 249 246 243 242 240 238 235 232 232 233 234 238 241 241 243 247 248 245 244 244 243 242 240 242 244 245 246 249 254 254 245 237 230 225 223 220 219 218 218 218 219 222 223 225 227 227 226 228 232 233 233 235 235 236 239 242 245 248 250 251 251 251 255 258 258 259 263 268 273 275 274 271 270 269 265 260 255 253
286 284 281 277 273 266 257 251 247 244 242 240 239 238 235 233 232 233 237 241 241 238 242 247 246 245 244 243 243 242 242 243 245 246 247 250 251 244 235 231 228 225 222 221 220 218 218 218 220 223 225 228 229 229 231 233 235 238 239 240 239 240 242 245 248 249 249 250 252 256 259 256 257 261 265 271 274 274 272 269 268 266 260 255 252
289 288 285 281 276 271 263 254 249 246 243 241 240 239 237 234 232 232 235 238 240 238 238 244 245 244 243 242 243 243 241 241 244 246 246 247 248 244 235 231 229 227 225 224 222 221 220 219 219 221 224 227 229 230 231 234 237 239 241 242 242 242 241 243 246 246 245 248 253 258 262 260 261 264 266 269 271 271 271 268 267 265 261 254 251
292 292 290 285 280 274 267 258 251 246 244 242 241 239 238 236 233 232 234 236 237 238 238 241 243 244 243 241 241 242 241 240 242 245 246 245 245 244 237 233 231 230 229 227 224 222 221 221 221 221 223 225 227 229 231 233 236 238 240 241 243 243 242 244 246 246 247 249 252 259 265 267 267 266 267 269 269 267 267 267 265 264 261 255 250
295 295 294 291 286 281 273 263 254 247 244 242 242 241 239 237 234 232 234 236 236 237 239 240 242 243 244 242 240 241 241 241 241 242 244 243 243 243 239 236 236 233 232 230 226 223 221 221 222 223 225 226 228 230 232 234 236 237 239 240 242 244 244 247 250 251 251 251 255 262 266 267 267 266 266 268 269 267 265 265 264 262 261 256 251
298 299 297 296 293 288 282 272 260 249 243 241 240 240 239 238 237 233 233 235 237 237 238 240 241 243 244 242 240 239 240 240 239 239 241 241 242 243 240 239 239 237 235 233 230 225 222 221 222 223 225 227 229 231 232 233 235 237 238 240 242 244 247 249 250 251 252 254 260 264 263 263 264 265 266 267 268 268 266 264 262 260 259 258 254
301 302 301 300 299 295 289 282 270 257 247 242 240 239 239 238 237 236 234 234 236 238 238 239 240 242 243 243 240 239 238 239 238 236 238 240 241 243 242 241 242 241 239 237 235 231 226 223 222 223 224 226 228 230 232 232 234 236 238 240 242 244 246 248 248 249 251 258 264 261 257 259 262 264 265 266 268 269 269 266 260 256 256 257 255
303 303 303 303 303 300 296 290 281 268 255 247 242 239 238 237 237 237 236 235 235 237 238 238 239 240 241 242 241 239 238 237 238 237 237 239 241 243 244 244 244 244 243 241 240 239 234 228 225 226 226 228 230 231 232 233 235 238 240 241 241 241 242 243 244 246 251 259 260 255 252 254 258 260 261 263 264 267 268 265 256 253 253 255 256
304 304 305 306 307 305 302 298 292 281 267 256 249 243 239 237 236 236 236 236 236 236 238 239 239 239 240 240 240 241 240 238 238 239 239 240 241 243 243 244 245 245 245 245 244 243 241 235 230 229 230 231 233 234 235 236 238 240 241 241 240 239 238 239 242 246 249 251 251 249 249 252 254 255 257 260 263 264 264 259 252 251 252 252 255
304 304 305 307 309 309 307 304 300 292 280 267 256 249 242 238 236 236 235 235 236 236 237 238 239 240 240 240 240 241 242 241 240 239 240 240 240 242 242 243 243 244 245 246 245 244 244 240 234 232 233 232 233 235 237 239 241 242 241 241 240 237 236 237 241 244 245 244 246 249 252 255 257 257 259 263 267 267 260 252 249 251 250 250 253
303 303 304 307 311 313 311 308 304 300 291 280 267 254 246 241 238 237 236 235 235 236 237 237 238 239 240 241 240 240 241 242 242 240 240 239 239 240 241 242 242 242 243 245 246 244 243 241 237 235 235 234 234 234 236 237 239 240 239 238 237 235 235 237 239 242 243 244 248 252 255 258 260 261 263 266 269 270 261 249 247 250 249 249 252
302 303 303 306 311 314 313 311 308 305 299 290 279 263 249 243 240 238 237 236 235 235 236 236 237 238 239 239 240 239 239 239 240 241 241 240 240 240 240 241 241 241 241 242 244 244 242 240 238 237 236 235 235 234 234 234 235 236 235 235 234 233 236 239 240 241 244 247 249 252 256 259 261 263 264 265 266 269 265 255 249 248 247 249 252
301 303 303 305 310 314 314 313 312 310 306 298 289 277 259 245 240 239 239 238 236 235 235 235 236 237 238 238 238 238 238 237 237 239 241 241 240 240 240 240 240 240 241 241 241 242 241 240 238 238 238 237 235 235 234 233 233 233 233 232 232 234 237 240 241 242 245 248 249 252 255 258 261 262 262 262 263 264 266 261 254 248 244 247 251
301 302 303 304 308 312 314 315 315 315 312 307 298 289 276 259 245 239 238 238 237 236 235 235 235 235 236 237 236 237 238 238 236 236 238 240 241 240 240 239 239 239 240 240 240 240 240 240 239 239 239 238 237 236 236 235 234 234 233 232 234 236 237 240 242 244 247 250 250 251 254 256 257 258 258 258 259 261 264 262 258 251 245 245 248
300 302 303 303 306 310 313 314 315 317 317 313 308 299 290 277 261 248 241 238 237 236 235 234 234 234 235 235 235 236 237 238 236 235 235 237 239 240 240 239 239 239 239 239 239 239 239 239 239 239 239 239 238 238 238 237 237 237 236 235 237 238 239 240 244 247 249 251 252 251 252 253 253 252 253 255 256 259 262 262 258 253 249 247 247
298 300 301 302 304 306 310 312 314 316 318 316 312 306 298 289 276 263 251 242 237 235 235 234 233 233 234 234 234 235 235 236 236 235 235 235 236 237 239 239 239 239 239 239 239 238 238 238 239 239 239 239 240 239 239 239 239 240 239 239 240 241 242 243 246 249 251 252 253 252 250 250 249 247 248 251 254 258 259 260 259 253 250 249 249
Height
10800 10801 10803 10805 10807 10809 10811 10814 10816 10817 10818 10819 10820 10821 10823 10824 10825 10826 10827 10828 10829 10831 10834 10837 10839 10841 10842 10844 10845 10846 10848 10850 10851 10853 10854 10855 10856 10856 10857 10857 10858 10860 10861 10861 10862 10863 10864 10865 10867 10868 10869 10869 10870 10871 10871 10871 10871 10871 10871 10870 10870 10869 10869 10868 10868 10867 10866 10864 10863 10862 10861 10860 10859 10857 10855 10854 10852 10851 10850 10849 10847 10846 10844 10842 10840
10795 10797 10799 10802 10804 10806 10808 10811 10813 10814 10815 10815 10817 10818 10818 10819 10820 10821 10822 10823 10824 10826 10828 10831 10833 10835 10837 10839 10840 10842 10843 10845 10847 10848 10850 10851 10852 10852 10853 10855 10856 10857 10857 10858 10859 10861 10862 10864 10865 10865 10865 10866 10867 10868 10868 10868 10868 10868 10868 10868 10868 10867 10866 10866 10865 10865 10863 10862 10861 10860 10859 10858 10857 10855 10854 10852 10851 10850 10848 10847 10846 10844 10842 10840 10838
10792 10794 10796 10798 10800 10802 10804 10806 10808 10810 10811 10812 10813 10814 10814 10815 10816 10817 10818 10818 10819 10821 10824 10826 10828 10830 10832 10834 10836 10837 10839 10840 10842 10844 10845 10847 10848 10849 10850 10852 10853 10854 10854 10856 10857 10859 10860 10861 10861 10862 10862 10863 10864 10865 10866 10865 10865 10865 10865 10866 10865 10865 10864 10863 10863 10862 10861 10860 10859 10858 10857 10856 10855 10854 10852 10851 10849 10848 10847 10846 10844 10843 10841 10838 10837
10787 10790 10791 10793 10794 10797 10799 10801 10803 10805 10807 10808 10809 10810 10811 10811 10812 10814 10815 10815 10816 10817 10819 10822 10824 10826 10828 10830 10831 10833 10835 10836 10838 10839 10841 10843 10844 10846 10847 10849 10850 10851 10851 10853 10855 10857 10858 10858 10859 10859 10860 10861 10862 10863 10863 10862 10862 10862 10863 10863 10862 10862 10862 10861 10861 10860 10859 10858 10857 10856 10855 10854 10853 10852 10851 10849 10848 10846 10845 10844 10843 10841 10839 10837 10836
10781 10784 10788 10789 10790 10793 10795 10797 10799 10801 10803 10804 10805 10806 10807 10808 10809 10810 10811 10812 10813 10814 10816 10818 10820 10821 10823 10826 10827 10829 10830 10831 10833 10835 10836 10838 10840 10842 10844 10846 10847 10848 10849 10851 10853 10854 10855 10856 10857 10857 10858 10858 10859 10860 10860 10859 10859 10860 10860 10860 10860 10859 10859 10859 10858 10858 10857 10856 10855 10854 10854 10853 10852 10850 10849 10848 10846 10845 10844 10843 10841 10840 10837 10836 10834
10778 10782 10786 10787 10788 10790 10792 10794 10795 10797 10799 10800 10801 10802 10803 10804 10806 10807 10808 10809 10810 10811 10812 10815 10816 10817 10819 10821 10823 10824 10826 10827 10829 10830 10832 10834 10836 10838 10841 10842 10844 10846 10848 10850 10851 10853 10854 10854 10854 10854 10855 10856 10857 10857 10857 10856 10857 10857 10857 10857 10857 10857 10857 10857 10856 10856 10855 10855 10854 10853 10852 10851 10850 10849 10847 10846 10845 10844 10842 10841 10840 10838 10836 10834 10833
10775 10779 10782 10783 10784 10785 10787 10790 10792 10794 10795 10797 10798 10799 10800 10801 10802 10804 10805 10806 10807 10808 10809 10811 10812 10813 10815 10817 10818 10820 10821 10823 10825 10826 10828 10830 10832 10834 10837 10839 10840 10842 10844 10847 10848 10850 10851 10852 10852 10852 10853 10854 10854 10854 10854 10854 10854 10854 10854 10854 10855 10855 10854 10854 10854 10854 10853 10853 10852 10851 10850 10849 10848 10847 10846 10845 10843 10842 10841 10840 10838 10837 10835 10833 10832
10770 10773 10775 10776 10778 10780 10782 10784 10787 10789 10791 10793 10795 10796 10797 10797 10799 10800 10801 10802 10803 10805 10806 10807 10808 10809 10811 10812 10814 10815 10817 10819 10821 10822 10824 10825 10827 10830 10833 10835 10836 10838 10840 10842 10844 10846 10847 10848 10849 10849 10850 10852 10852 10852 10851 10851 10851 10851 10851 10852 10852 10852 10852 10852 10852 10852 10851 10851 10850 10849 10848 10847 10847 10846 10845 10843 10842 10841 10840 10838 10837 10835 10833 10832 10830
10764 10767 10770 10771 10773 10775 10776 10778 10780 10782 10785 10787 10787 10790 10792 10794 10795 10796 10797 10798 10799 10800 10802 10803 10804 10805 10807 10808 10810 10811 10812 10814 10816 10818 10819 10821 10823 10825 10828 10830 10832 10834 10835 10837 10840 10841 10843 10844 10846 10847 10848 10849 10850 10849 10849 10848 10848 10849 10849 10849 10850 10850 10849 10850 10850 10850 10849 10849 10848 10847 10847 10846 10845 10844 10843 10842 10841 10840 10838 10837 10835 10834 10832 10830 10829
10761 10765 10767 10768 10768 10770 10771 10773 10775 10777 10779 10778 10777 10778 10781 10786 10791 10792 10792 10792 10793 10794 10796 10798 10799 10801 10803 10804 10805 10806 10808 10809 10811 10813 10815 10817 10819 10821 10824 10826 10828 10830 10832 10834 10836 10837 10839 10841 10842 10844 10845 10846 10847 10847 10846 10846 10846 10846 10847 10847 10848 10848 10847 10847 10847 10848 10847 10847 10846 10846 10845 10844 10844 10843 10842 10841 10840 10838 10837 10836 10834 10832 10830 10829 10827
10758 10761 10762 10762 10763 10765 10767 10769 10771 10773 10773 10771 10769 10767 10768 10773 10782 10787 10788 10787 10787 10788 10790 10792 10794 10796 10798 10799 10800 10802 10803 10805 10807 10809 10811 10812 10814 10817 10819 10821 10824 10825 10827 10829 10831 10833 10835 10837 10839 10841 10842 10843 10844 10844 10844 10843 10844 10844 10844 10845 10846 10845 10845 10845 10845 10845 10845 10845 10845 10844 10844 10843 10842 10841 10840 10840 10838 10837 10836 10834 10833 10831 10829 10828 10826
10753 10755 10756 10757 10759 10760 10762 10764 10766 10767 10767 10765 10765 10764 10763 10766 10771 10776 10781 10782 10781 10782 10784 10786 10788 10790 10793 10795 10796 10798 10799 10800 10802 10804 10806 10808 10810 10812 10814 10817 10819 10821 10823 10825 10827 10830 10832 10833 10835 10837 10839 10840 10842 10842 10841 10841 10841 10842 10842 10843 10843 10843 10842 10843 10843 10843 10843 10843 10843 10843 10842 10842 10841 10840 10839 10838 10837 10836 10835 10833 10832 10830 10828 10827 10825
10749 10750 10751 10753 10754 10755 10757 10759 10760 10761 10760 10760 10761 10761 10761 10763 10764 10765 10768 10772 10774 10776 10778 10780 10783 10785 10788 10790 10792 10793 10795 10796 10797 10799 10801 10803 10805 10807 10810 10812 10814 10817 10819 10821 10824 10825 10827 10829 10832 10834 10835 10837 10839 10839 10839 10839 10839 10839 10840 10840 10840 10840 10840 10841 10841 10841 10841 10841 10841 10841 10841 10840 10840 10839 10838 10837 10836 10835 10833 10832 10830 10829 10827 10826 10824
10746 10745 10746 10748 10749 10750 10752 10753 10754 10755 10755 10755 10756 10758 10758 10760 10761 10760 10759 10761 10765 10769 10772 10775 10778 10780 10783 10785 10787 10788 10790 10791 10792 10794 10796 10798 10800 10802 10805 10808 10811 10814 10816 10818 10819 10821 10823 10825 10828 10830 10831 10834 10836 10837 10837 10837 10837 10837 10837 10837 10838 10838 10839 10839 10838 10839 10839 10839 10839 10839 10839 10839 10838 10837 10837 10836 10835 10834 10832 10831 10829 10828 10826 10825 10824
10740 10740 10740 10742 10743 10744 10746 10747 10749 10750 10751 10751 10752 10754 10755 10756 10757 10758 10758 10759 10762 10765 10767 10770 10773 10775 10778 10780 10782 10783 10785 10786 10788 10789 10790 10793 10795 10797 10800 10803 10807 10810 10812 10814 10815 10817 10819 10821 10824 10826 10828 10831 10834 10835 10835 10834 10834 10834 10834 10835 10835 10835 10836 10836 10836 10836 10836 10837 10837 10837 10837 10837 10837 10836 10835 10835 10833 10832 10831 10830 10828 10827 10826 10824 10823
10734 10734 10735 10737 10737 10738 10740 10741 10743 10744 10746 10747 10748 10750 10751 10752 10754 10756 10757 10758 10761 10764 10765 10766 10769 10771 10773 10775 10777 10778 10779 10781 10782 10784 10785 10788 10790 10792 10795 10798 10802 10805 10808 10810 10812 10813 10816 10818 10821 10823 10824 10827 10830 10832 10832 10831 10831 10832 10832 10832 10832 10833 10834 10833 10833 10834 10834 10834 10835 10835 10835 10835 10835 10834 10834 10833 10832 10831 10830 10828 10827 10826 10824 10823 10822
10730 10730 10731 10732 10732 10732 10734 10735 10736 10739 10742 10743 10745 10747 10748 10748 10751 10753 10753 10755 10758 10760 10761 10762 10764 10767 10769 10770 10772 10773 10774 10776 10777 10779 10781 10783 10785 10787 10790 10793 10797 10800 10803 10807 10809 10810 10813 10815 10818 10820 10821 10825 10827 10828 10828 10828 10829 10829 10829 10829 10829 10830 10831 10831 10831 10831 10831 10832 10833 10833 10833 10833 10833 10832 10832 10831 10830 10829 10828 10827 10826 10825 10823 10822 10821
10725 10725 10726 10727 10727 10727 10728 10729 10731 10734 10738 10740 10741 10743 10745 10745 10747 10749 10749 10751 10753 10755 10756 10757 10759 10761 10763 10765 10766 10767 10769 10771 10772 10774 10776 10778 10780 10783 10786 10789 10792 10795 10799 10802 10804 10806 10809 10812 10814 10816 10818 10821 10823 10824 10825 10826 10826 10826 10826 10827 10827 10828 10828 10828 10828 10829 10829 10830 10830 10830 10831 10831 10831 10830 10830 10829 10828 10827 10827 10825 10824 10823 10822 10821 10820
10721 10721 10722 10722 10722 10722 10724 10725 10726 10730 10734 10736 10738 10739 10741 10742 10744 10745 10747 10748 10749 10751 10752 10753 10754 10756 10759 10760 10762 10763 10764 10766 10768 10769 10771 10773 10775 10778 10781 10784 10787 10791 10794 10798 10800 10802 10805 10808 10810 10813 10815 10817 10819 10821 10823 10823 10824 10824 10824 10824 10825 10825 10826 10826 10826 10826 10827 10827 10828 10828 10829 10829 10829 10828 10828 10827 10827 10826 10825 10824 10823 10822 10821 10820 10819
10716 10717 10718 10718 10718 10718 10720 10721 10722 10725 10729 10731 10733 10735 10737 10739 10741 10742 10744 10746 10746 10747 10748 10749 10751 10752 10755 10756 10757 10759 10760 10762 10764 10765 10766 10769 10772 10774 10777 10780 10783 10787 10790 10793 10796 10798 10801 10804 10807 10809 10812 10814 10816 10819 10820 10821 10821 10821 10822 10822 10822 10823 10823 10824 10824 10824 10825 10825 10826 10826 10826 10827 10827 10827 10826 10826 10825 10824 10823 10822 10821 10820 10819 10819 10818
10712 10713 10714 10714 10714 10715 10716 10717 10718 10721 10723 10726 10727 10730 10733 10735 10737 10739 10740 10742 10743 10744 10745 10746 10747 10748 10750 10752 10754 10755 10757 10759 10760 10762 10764 10766 10768 10770 10772 10776 10779 10783 10786 10789 10792 10795 10798 10801 10803 10805 10808 10811 10813 10815 10817 10819 10819 10819 10820 10820 10820 10820 10820 10822 10822 10822 10823 10823 10824 10824 10824 10825 10825 10825 10824 10824 10823 10823 10822 10821 10820 10819 10818 10817 10817
10708 10709 10710 10711 10711 10712 10713 10713 10713 10716 10719 10721 10723 10726 10729 10731 10732 10734 10735 10737 10739 10740 10741 10742 10743 10745 10747 10750 10751 10753 10754 10756 10758 10759 10760 10762 10764 10766 10768 10771 10775 10779 10782 10786 10789 10792 10795 10798 10800 10802 10805 10807 10809 10812 10814 10816 10816 10817 10817 10817 10817 10817 10818 10820 10820 10820 10821 10821 10822 10822 10822 10823 10823 10823 10822 10822 10822 10821 10820 10819 10818 10817 10817 10816 10815
10704 10705 10706 10707 10708 10708 10709 10709 10709 10712 10714 10717 10719 10721 10724 10726 10727 10729 10730 10732 10734 10735 10737 10739 10741 10744 10746 10748 10749 10751 10752 10753 10754 10756 10756 10758 10760 10762 10764 10766 10769 10773 10777 10782 10786 10789 10791 10794 10797 10800 10802 10804 10806 10809 10811 10812 10813 10813 10814 10814 10814 10814 10815 10818 10818 10817 10819 10819 10820 10820 10820 10820 10820 10821 10820 10820 10820 10819 10819 10818 10817 10816 10815 10815 10814
10700 10701 10702 10703 10704 10704 10705 10706 10706 10707 10710 10713 10715 10718 10720 10722 10722 10723 10725 10727 10729 10730 10733 10737 10740 10742 10743 10745 10746 10748 10749 10750 10751 10753 10754 10755 10757 10759 10761 10762 10764 10768 10772 10776 10781 10785 10788 10790 10793 10797 10800 10802 10804 10806 10808 10809 10810 10810 10811 10812 10812 10812 10813 10815 10815 10815 10816 10817 10817 10818 10818 10818 10818 10818 10819 10818 10818 10818 10817 10817 10816 10815 10814 10813 10813
10696 10697 10698 10699 10699 10700 10701 10702 10702 10703 10705 10708 10711 10713 10716 10717 10718 10719 10721 10723 10723 10725 10730 10734 10737 10738 10739 10741 10743 10745 10746 10747 10749 10750 10752 10753 10754 10756 10757 10759 10761 10764 10768 10772 10776 10780 10783 10786 10790 10794 10797 10799 10801 10803 10805 10806 10806 10808 10809 10810 10810 10810 10811 10813 10813 10813 10814 10814 10814 10815 10815 10815 10816 10816 10816 10816 10816 10816 10816 10815 10815 10814 10813 10812 10812
10692 10693 10694 10694 10695 10695 10696 10697 10698 10700 10701 10703 10706 10709 10711 10713 10714 10715 10717 10718 10718 10721 10726 10731 10734 10734 10736 10738 10740 10742 10744 10745 10746 10747 10748 10749 10750 10751 10753 10756 10757 10760 10764 10768 10772 10776 10779 10783 10786 10790 10793 10796 10798 10800 10801 10803 10804 10805 10807 10807 10807 10808 10809 10810 10811 10810 10811 10812 10812 10812 10813 10813 10813 10814 10814 10814 10814 10814 10814 10814 10813 10812 10812 10811 10810
10688 10689 10689 10689 10690 10690 10691 10692 10694 10695 10697 10700 10702 10704 10706 10707 10709 10710 10712 10712 10713 10718 10724 10727 10730 10732 10732 10735 10737 10740 10741 10742 10743 10744 10744 10745 10746 10748 10750 10752 10754 10756 10760 10765 10769 10773 10776 10779 10782 10786 10789 10791 10794 10795 10798 10800 10801 10802 10804 10805 10805 10806 10807 10808 10809 10808 10808 10809 10810 10810 10810 10811 10811 10811 10811 10812 10812 10812 10812 10812 10811 10811 10810 10809 10809
10685 10684 10684 10685 10685 10686 10687 10687 10689 10691 10693 10696 10697 10699 10701 10703 10704 10706 10706 10707 10710 10714 10720 10723 10726 10728 10729 10731 10734 10737 10739 10740 10741 10741 10740 10741 10743 10745 10747 10749 10751 10753 10756 10760 10765 10768 10772 10775 10778 10781 10784 10787 10789 10791 10794 10797 10798 10798 10800 10802 10802 10803 10804 10805 10806 10806 10806 10807 10807 10807 10808 10808 10808 10808 10809 10809 10809 10809 10809 10809 10809 10809 10808 10808 10807
10682 10680 10680 10680 10680 10681 10681 10682 10684 10686 10689 10691 10693 10694 10696 10699 10701 10702 10701 10702 10707 10711 10715 10719 10722 10724 10726 10728 10730 10733 10736 10737 10738 10738 10738 10739 10740 10742 10744 10746 10748 10750 10753 10756 10760 10764 10768 10771 10775 10778 10780 10782 10784 10787 10791 10793 10793 10795 10796 10798 10799 10800 10801 10803 10804 10804 10803 10804 10804 10805 10805 10806 10806 10806 10806 10806 10806 10807 10807 10807 10807 10807 10806 10806 10805
10678 10676 10675 10675 10675 10676 10676 10677 10679 10682 10685 10687 10688 10690 10692 10695 10697 10698 10697 10698 10702 10706 10710 10714 10718 10720 10722 10725 10727 10729 10732 10735 10736 10736 10736 10737 10738 10740 10742 10744 10745 10746 10749 10753 10756 10760 10764 10767 10771 10775 10776 10778 10780 10783 10786 10788 10789 10790 10792 10794 10795 10796 10798 10799 10801 10801 10801 10801 10801 10802 10802 10803 10803 10803 10803 10804 10804 10804 10804 10804 10804 10804 10804 10803 10803
10673 10672 10671 10670 10670 10670 10671 10672 10674 10677 10680 10682 10684 10686 10688 10691 10693 10694 10693 10694 10696 10700 10705 10710 10714 10717 10719 10722 10724 10726 10729 10732 10733 10733 10735 10734 10735 10737 10739 10740 10742 10744 10746 10749 10753 10756 10760 10763 10767 10771 10773 10775 10777 10780 10782 10783 10784 10786 10788 10790 10791 10793 10794 10796 10797 10798 10798 10798 10798 10798 10799 10799 10800 10800 10801 10801 10801 10801 10801 10801 10802 10802 10801 10801 10801
10668 10667 10666 10666 10665 10665 10665 10667 10669 10672 10675 10677 10679 10681 10683 10686 10688 10689 10690 10690 10690 10692 10698 10705 10711 10714 10716 10718 10720 10722 10725 10728 10729 10730 10732 10732 10732 10734 10735 10737 10739 10741 10744 10747 10749 10752 10755 10759 10763 10766 10768 10771 10773 10776 10779 10780 10781 10782 10784 10786 10788 10789 10790 10792 10794 10795 10795 10795 10795 10795 10796 10796 10797 10798 10798 10798 10798 10798 10798 10799 10799 10799 10799 10799 10799
10663 10662 10661 10661 10660 10660 10661 10662 10664 10666 10669 10671 10673 10676 10678 10680 10683 10685 10686 10685 10682 10685 10693 10700 10706 10710 10713 10715 10716 10719 10721 10723 10725 10727 10728 10728 10729 10731 10733 10735 10737 10738 10740 10743 10745 10748 10751 10754 10758 10761 10764 10766 10768 10772 10775 10776 10777 10779 10782 10783 10784 10786 10787 10788 10790 10791 10792 10792 10792 10792 10793 10794 10794 10795 10795 10795 10796 10796 10796 10796 10796 10796 10796 10796 10796
10658 10656 10655 10655 10655 10655 10656 10657 10658 10660 10662 10665 10668 10670 10673 10675 10678 10680 10682 10681 10677 10681 10689 10694 10700 10705 10709 10711 10712 10714 10716 10719 10721 10722 10724 10725 10726 10728 10729 10731 10733 10734 10736 10738 10741 10743 10747 10750 10754 10757 10760 10762 10764 10767 10770 10771 10773 10776 10778 10779 10781 10782 10783 10784 10785 10787 10788 10789 10789 10789 10790 10791 10791 10792 10792 10793 10793 10793 10793 10793 10793 10793 10793 10793 10794
10652 10650 10650 10649 10649 10649 10650 10652 10653 10655 10656 10659 10661 10665 10667 10669 10672 10675 10677 10677 10675 10677 10682 10687 10693 10699 10702 10705 10706 10708 10711 10714 10716 10718 10720 10721 10723 10725 10726 10727 10729 10730 10732 10734 10736 10739 10742 10746 10750 10753 10755 10758 10760 10763 10765 10767 10769 10771 10773 10775 10776 10778 10778 10780 10781 10783 10784 10785 10785 10786 10787 10787 10788 10789 10789 10790 10790 10790 10790 10790 10790 10790 10790 10791 10791
10647 10645 10644 10643 10642 10642 10644 10645 10647 10649 10650 10652 10655 10658 10661 10664 10666 10669 10671 10673 10673 10673 10675 10680 10687 10691 10696 10700 10702 10704 10706 10709 10712 10714 10716 10717 10719 10721 10723 10724 10725 10727 10728 10730 10732 10734 10738 10741 10745 10749 10751 10754 10757 10759 10761 10763 10766 10768 10769 10771 10772 10773 10774 10775 10776 10778 10780 10781 10782 10782 10783 10784 10785 10785 10786 10786 10787 10787 10787 10787 10787 10787 10787 10788 10788
10642 10640 10639 10638 10636 10635 10637 10639 10641 10643 10644 10646 10649 10652 10655 10658 10661 10664 10666 10667 10669 10669 10669 10673 10680 10685 10690 10695 10698 10699 10702 10704 10707 10710 10712 10714 10716 10718 10720 10721 10722 10724 10725 10727 10729 10731 10733 10737 10740 10744 10747 10750 10753 10756 10757 10759 10762 10764 10766 10767 10768 10770 10771 10772 10773 10774 10776 10777 10778 10779 10779 10780 10781 10782 10783 10783 10784 10784 10784 10784 10784 10784 10785 10785 10785
10637 10635 10633 10632 10631 10629 10630 10632 10634 10636 10638 10640 10643 10645 10648 10651 10654 10657 10660 10662 10664 10665 10664 10667 10673 10678 10684 10689 10692 10695 10697 10699 10702 10704 10707 10709 10711 10714 10716 10717 10719 10721 10722 10723 10726 10728 10730 10733 10736 10739 10742 10745 10747 10750 10752 10755 10757 10759 10761 10763 10764 10766 10767 10768 10770 10771 10772 10773 10774 10776 10776 10777 10777 10778 10779 10780 10780 10781 10781 10781 10781 10781 10782 10782 10782
10633 10630 10628 10626 10626 10624 10623 10624 10626 10629 10631 10633 10635 10638 10641 10644 10647 10651 10653 10656 10659 10660 10660 10661 10665 10671 10677 10683 10687 10689 10692 10694 10697 10699 10702 10704 10707 10709 10712 10713 10715 10717 10718 10719 10721 10724 10727 10729 10731 10733 10736 10739 10741 10744 10746 10749 10751 10754 10755 10757 10759 10761 10763 10765 10767 10768 10768 10769 10771 10772 10773 10773 10774 10774 10775 10776 10777 10777 10777 10777 10778 10778 10779 10779 10779
10628 10626 10623 10621 10620 10618 10617 10617 10619 10622 10624 10626 10628 10631 10633 10636 10640 10644 10647 10649 10652 10655 10655 10655 10658 10663 10669 10676 10681 10683 10686 10689 10692 10694 10696 10699 10702 10704 10707 10709 10711 10712 10713 10714 10716 10718 10721 10724 10727 10729 10731 10733 10736 10738 10741 10744 10746 10749 10750 10752 10755 10757 10759 10761 10762 10763 10764 10765 10767 10768 10769 10769 10770 10770 10771 10772 10773 10773 10774 10774 10774 10775 10775 10776 10776
10623 10621 10619 10617 10615 10613 10612 10611 10612 10614 10617 10619 10621 10623 10625 10628 10632 10636 10640 10642 10645 10649 10650 10649 10652 10657 10662 10668 10674 10677 10680 10684 10687 10689 10691 10694 10696 10699 10702 10704 10706 10707 10709 10711 10712 10713 10715 10718 10721 10723 10725 10727 10730 10732 10736 10739 10742 10744 10746 10749 10752 10754 10755 10757 10758 10759 10760 10761 10762 10763 10764 10765 10766 10766 10767 10767 10768 10769 10770 10770 10770 10771 10772 10772 10773
10618 10617 10614 10613 10611 10609 10607 10605 10605 10607 10609 10612 10614 10616 10618 10620 10624 10628 10632 10635 10638 10642 10644 10644 10646 10650 10655 10660 10666 10671 10674 10678 10681 10683 10685 10688 10691 10694 10697 10699 10701 10703 10705 10707 10709 10709 10710 10712 10714 10716 10719 10721 10724 10727 10731 10734 10737 10739 10742 10746 10748 10749 10751 10753 10754 10754 10756 10757 10758 10758 10759 10760 10761 10762 10763 10763 10764 10764 10765 10766 10766 10767 10768 10769 10769
10614 10612 10610 10609 10607 10605 10602 10600 10599 10600 10602 10604 10606 10608 10610 10612 10615 10619 10623 10627 10630 10634 10637 10639 10641 10644 10647 10652 10658 10663 10668 10671 10674 10677 10681 10683 10686 10689 10692 10694 10697 10699 10700 10702 10704 10706 10707 10708 10710 10712 10715 10718 10720 10724 10727 10730 10733 10735 10739 10742 10743 10745 10748 10749 10749 10750 10752 10753 10754 10755 10755 10756 10756 10758 10759 10760 10760 10760 10760 10761 10762 10762 10763 10765 10765
10610 10608 10607 10605 10603 10601 10598 10596 10594 10594 10595 10597 10599 10600 10603 10605 10607 10610 10614 10618 10622 10626 10629 10632 10635 10638 10641 10644 10649 10654 10660 10664 10667 10671 10675 10678 10681 10684 10687 10689 10692 10694 10696 10697 10699 10702 10705 10706 10708 10709 10712 10715 10718 10721 10725 10727 10730 10732 10735 10737 10738 10742 10744 10744 10745 10747 10748 10749 10750 10751 10752 10752 10753 10754 10755 10755 10756 10757 10757 10756 10757 10758 10759 10760 10762
10606 10604 10603 10602 10600 10598 10595 10593 10591 10589 10589 10590 10592 10594 10595 10597 10600 10602 10605 10609 10613 10617 10621 10625 10628 10632 10635 10638 10642 10646 10650 10655 10659 10664 10668 10672 10675 10678 10681 10684 10686 10689 10691 10693 10695 10698 10701 10703 10704 10706 10708 10711 10714 10718 10721 10724 10726 10728 10731 10733 10734 10738 10738 10739 10742 10743 10744 10745 10746 10747 10747 10748 10749 10750 10750 10750 10751 10751 10752 10752 10752 10754 10755 10756 10758
10602 10601 10599 10598 10597 10595 10592 10590 10588 10586 10584 10584 10586 10587 10589 10591 10593 10595 10598 10601 10604 10608 10612 10616 10620 10624 10629 10632 10636 10639 10642 10646 10650 10655 10660 10665 10669 10671 10674 10677 10680 10683 10686 10688 10690 10693 10696 10698 10699 10701 10704 10707 10710 10713 10715 10719 10722 10723 10726 10728 10730 10733 10733 10734 10737 10738 10739 10741 10742 10742 10743 10743 10744 10745 10746 10746 10746 10746 10746 10748 10748 10749 10751 10752 10753
10598 10597 10596 10594 10593 10591 10590 10588 10586 10584 10582 10580 10580 10581 10583 10584 10586 10588 10591 10593 10596 10600 10603 10608 10612 10616 10621 10625 10629 10633 10635 10638 10641 10646 10651 10656 10661 10665 10667 10670 10674 10677 10680 10683 10685 10688 10690 10693 10695 10697 10699 10702 10704 10706 10709 10713 10716 10717 10720 10722 10725 10727 10728 10729 10732 10733 10734 10736 10737 10737 10738 10739 10740 10741 10743 10743 10742 10741 10741 10743 10745 10745 10746 10748 10749
10594 10594 10593 10591 10590 10588 10587 10585 10584 10581 10579 10577 10575 10575 10576 10578 10580 10582 10584 10586 10589 10592 10595 10599 10604 10608 10612 10617 10622 10625 10629 10631 10633 10637 10642 10647 10652 10656 10660 10663 10666 10670 10674 10677 10680 10682 10685 10688 10690 10692 10694 10697 10699 10701 10704 10708 10711 10712 10714 10717 10719 10721 10722 10724 10727 10728 10730 10731 10731 10732 10733 10735 10736 10737 10738 10738 10738 10738 10738 10738 10740 10742 10743 10744 10744
10590 10590 10589 10588 10586 10585 10584 10582 10581 10579 10576 10574 10572 10571 10571 10572 10574 10576 10578 10580 10582 10585 10588 10592 10596 10600 10604 10608 10613 10618 10621 10624 10626 10629 10634 10639 10643 10648 10652 10655 10659 10662 10666 10670 10673 10676 10679 10681 10684 10687 10689 10691 10694 10696 10698 10702 10706 10708 10710 10712 10714 10715 10717 10719 10720 10723 10725 10725 10726 10727 10728 10730 10732 10733 10733 10734 10734 10734 10735 10735 10735 10736 10738 10739 10740
10586 10586 10585 10584 10583 10582 10580 10579 10578 10577 10575 10572 10570 10568 10567 10567 10568 10570 10572 10574 10576 10578 10581 10585 10588 10592 10596 10600 10605 10610 10613 10617 10620 10621 10625 10631 10636 10640 10644 10648 10651 10655 10659 10663 10667 10670 10672 10675 10678 10680 10683 10686 10688 10691 10693 10696 10700 10702 10704 10706 10708 10710 10712 10714 10715 10717 10720 10721 10721 10722 10723 10725 10728 10729 10728 10729 10730 10731 10732 10732 10731 10732 10733 10735 10736
10583 10582 10582 10581 10580 10578 10577 10576 10575 10574 10573 10571 10568 10566 10565 10564 10563 10564 10566 10568 10570 10572 10574 10577 10581 10584 10588 10592 10597 10601 10605 10609 10613 10615 10617 10621 10627 10632 10636 10640 10643 10647 10651 10655 10659 10662 10666 10668 10671 10674 10676 10679 10682 10685 10687 10690 10693 10696 10697 10700 10702 10704 10706 10708 10710 10712 10714 10716 10716 10716 10718 10721 10724 10723 10723 10724 10726 10727 10728 10728 10728 10728 10728 10730 10731